Location: Clarks Summit,Pa.
(41.5000°N, 75.6000°W)
Time: 21:06:47
(UTC-05:00)

Hubble Space Telescope - Visible Passes

Search period start: 15 December 2018 00:00
Search period end: 25 December 2018 00:00
Orbit: 537 x 540 km, 28.5° (Epoch: 14 December)

Date Brightness Start Highest point End Pass type
(mag) Time Alt. Az. Time Alt. Az. Time Alt. Az.
22 Dec 3.4 18:47:47 10° S 18:47:49 10° S 18:47:49 10° S visible
23 Dec 3.3 18:36:08 10° S 18:37:23 11° S 18:38:00 11° SSE visible
24 Dec 3.2 18:25:10 10° SSW 18:26:48 12° S 18:28:12 11° SSE visible
